Regional Weather Roundup
Issued by NWS

Home | Current Version | Previous Version | Graphics & Text | Print | Product List | Glossary On
Versions: 1 2 3 4 5 6 7 8 9 10 11 12 13 14 15 16 17 18 19 20 21 22 23 24 25 26 27 28 29 30 31 32 33 34 35 36 37 38 39 40 41 42 43 44 45 46 47 48 49 50
000
ASUS43 KMPX 170810
RWRMN
WEATHER ROUNDUP FOR MINNESOTA
NATIONAL WEATHER SERVICE TWIN CITIES/CHANHASSEN MN
200 AM CST SUN DEC 17 2017


NOTE: "FAIR" INDICATES FEW OR NO CLOUDS BELOW 12,000 FEET WITH NO
SIGNIFICANT WEATHER AND/OR OBSTRUCTIONS TO VISIBILITY. N/A MEANS
CURRENT SKY AND/OR WEATHER CONDITIONS ARE NOT AVAILABLE.

MNZ060>063-068>070-170900-
   Twin Cities Metro

CITY           SKY/WX    TMP DP  RH WIND       PRES   REMARKS
TWIN CITIES    CLOUDY    20  17  88 CALM      30.10R
ST PAUL        PTCLDY    21  16  81 E3        30.12R
CRYSTAL        CLOUDY    20  14  77 CALM      30.10R
BLAINE         CLOUDY    19  18  93 CALM      30.10R
LAKEVILLE      PTCLDY    18  18 100 CALM      30.09S
EDEN PRAIRIE   CLOUDY    22  17  81 CALM      30.09R
SOUTH ST PAUL  PTCLDY    21  17  83 CALM      30.11R
LAKE ELMO      FAIR      19  18  93 CALM      30.11R
$$
MNZ001>005-007-008-013>017-022>024-027-028-170900-
   Northwest Minnesota

CITY           SKY/WX    TMP DP  RH WIND       PRES   REMARKS
BEMIDJI        CLOUDY    24  22  96 SW6       30.05S WCI  16
HALLOCK        CLOUDY    12   9  85 S6        30.00S WCI   3
ROSEAU         CLOUDY    19  16  86 S9        29.99F WCI   9
WARROAD        CLOUDY    16  12  86 CALM      30.00F
THIEF RVR FALL MOCLDY    19  19 100 S13       30.03F WCI   7
CROOKSTON      CLOUDY    19  18  93 S7        30.05F FOG     WCI  10
FOSSTON        CLOUDY    21  21 100 S9        30.06S FOG     WCI  11
DETROIT LAKES  FOG       27  25  93 S6        30.07S VSB 1   WCI  20
MOORHEAD       CLOUDY    21  19  93 CALM      30.08F
PARK RAPIDS    CLOUDY    25  22  88 SW3       30.05F
MAHNOMEN       CLOUDY    24  24  97 S7        30.06S FOG     WCI  16
$$
MNZ006-009>011-018-025>026-170900-
   North Central Minnesota

CITY           SKY/WX    TMP DP  RH WIND       PRES   REMARKS
BAUDETTE       MOCLDY    21  19  92 S7        30.00F WCI  12
FLAG ISLAND    CLOUDY    19  18  93 S6        29.99S FOG     WCI  11
INTL FALLS     CLOUDY    21  18  88 VRB5      30.04S WCI  15
WASKISH        CLOUDY    21  21 100 SW3       30.05S
BIG FORK       CLOUDY    21  19  93 S3        30.05F
LONGVILLE      CLOUDY    23  21  93 CALM      30.07S
GRAND RAPIDS   CLOUDY    20  18  92 S7        30.09S WCI  11
CRANE LAKE     CLOUDY    19  18  93 S6        30.08S WCI  11
ORR            CLOUDY    19  16  86 CALM      30.04S
COOK           CLOUDY    19  18  93 S3        30.07S
WALKER         CLOUDY    24  22  94 CALM      30.06S
$$
MNZ012-019>021-037-170900-
   Northeast Minnesota

CITY           SKY/WX    TMP DP  RH WIND       PRES   REMARKS
DULUTH         CLOUDY    19  16  88 W5        30.08S WCI  12
ELY            CLOUDY    19  18  93 S7        30.06F WCI  10
HIBBING        CLOUDY    18  17  96 S3        30.07F
EVELETH        CLOUDY    19  15  88 S3        30.09S
DULUTH HARBOR  CLOUDY    23  18  80 CALM      30.14F
TWO HARBORS    CLOUDY    25  18  74 SW3       30.09S
SILVER BAY     CLOUDY    23  19  86 CALM      30.09S
GRAND MARAIS     N/A     30  23  75 S12       30.12F WCI  20
G MARAIS ARPRT CLOUDY    19  16  86 S3        30.05F
$$
MNZ029>031-032-039>041-046>048-054>057-064-170900-
   West Central Minnesota

CITY           SKY/WX    TMP DP  RH WIND       PRES   REMARKS
FERGUS FALLS   FOG       21  21 100 CALM      30.11S VSB 3/4
WHEATON        FOG       27  25  93 CALM      30.09F VSB 1/2
MORRIS         CLOUDY    25  25 100 CALM      30.07S FOG
ALEXANDRIA     CLOUDY    27  27 100 S3        30.06F FOG
ELBOW LAKE     CLOUDY    20  19  98 CALM      30.07F FOG
WADENA         CLOUDY    25  25 100 CALM      30.07S FOG
GLENWOOD       CLOUDY    27  27 100 CALM      30.07F FOG
APPLETON       CLOUDY    27  25  93 CALM      30.08R FOG
BENSON         CLOUDY    28  27  93 CALM      30.09F FOG
ORTONVILLE     FOG       25  23  93 CALM      30.07F VSB 1/4
MADISON        PTCLDY    28  28 100 CALM      30.08S FOG
WILLMAR        FAIR      25  23  93 CALM      30.09S FOG
$$
MNZ033>034-036-042>043-049>051-058-059-170900-
   Central Minnesota

CITY           SKY/WX    TMP DP  RH WIND       PRES   REMARKS
ST CLOUD       CLOUDY    17  16  95 N5        30.08F WCI  10
SAUK CENTRE    CLOUDY    25  24  97 CALM      30.08S FOG
PAYNESVILLE    CLOUDY    24  24  99 N3        30.08S
AITKIN         CLOUDY    21  18  86 CALM      30.07F
PINE RIVER     CLOUDY    21  19  93 CALM      30.10F
BRAINERD       CLOUDY    24  21  88 CALM      30.08F FOG
STAPLES        CLOUDY    25  25 100 CALM      30.07S FOG
LONG PRAIRIE   SNOW      25  25 100 CALM      30.07S VSB 1/2
LITTLE FALLS   CLOUDY    23  19  86 CALM      30.08F
LITCHFIELD     CLOUDY    25  25 100 N3        30.08S FOG
BUFFALO        CLOUDY    21  18  86 CALM      30.10S
MAPLE LAKE     CLOUDY    21  19  93 CALM      30.09S
HUTCHINSON     CLOUDY    22  21  96 CALM      30.10R FOG
$$
MNZ037-044-045-052-053-170900-
   East Central Minnesota

CITY           SKY/WX    TMP DP  RH WIND       PRES   REMARKS
PRINCETON      CLOUDY    18  16  93 CALM      30.09S
MORA           CLOUDY    21  18  86 CALM      30.11F
CAMBRIDGE      CLOUDY    18  12  79 CALM      30.11R
RUSH CITY      CLOUDY    18  15  89 CALM      30.10F
MOOSE LAKE     CLOUDY    23  18  80 CALM      30.09F
HINCKLEY       CLOUDY    21  19  93 N3        30.11S
CLOQUET        CLOUDY    19  14  79 CALM      30.08F
MCGREGOR       CLOUDY    23  21  93 CALM      30.09S
$$
MNZ071>073-080-081-089-090-097-098-170900-
   Southwest Minnesota

CITY           SKY/WX    TMP DP  RH WIND       PRES   REMARKS
MONTEVIDEO     CLOUDY    27  25  93 CALM      30.09R
GRANITE FALLS  PTCLDY    22  21  94 CALM      30.11R
CANBY          CLOUDY    27  27  98 CALM      30.09S FOG
MARSHALL       CLOUDY    23  22  96 CALM      30.09R
REDWOOD FALLS  CLOUDY    27  25  92 CALM      30.09R FOG
OLIVIA         MOCLDY    23  21  93 CALM      30.09R FOG
PIPESTONE      CLOUDY    25  23  93 N3        30.04F FOG
WINDOM         HAZE      27  16  63 N6        30.05F VSB 1/2 WCI  20
WORTHINGTON    SNOW      24  23  96 N13       30.03F VSB 1/2 WCI  12
JACKSON        FOG       27  27 100 N9        30.03F VSB 1/2 WCI  17
SLAYTON        FOG       25  24  99 NE3       30.06S VSB 3/4
$$
MNZ065>067-074>077-082>085-091>093-170900-
   South Central Minnesota

CITY           SKY/WX    TMP DP  RH WIND       PRES   REMARKS
MANKATO        CLOUDY    25  22  88 N5        30.08R FOG     WCI  19
NEW ULM        MOCLDY    27  21  80 CALM      30.08S
ST JAMES       CLOUDY    27  27 100 N5        30.08F FOG     WCI  21
FAIRMONT       CLOUDY    27  25  93 N13       30.05F FOG     WCI  16
GLENCOE        CLOUDY    22  23 100 CALM      30.09R FOG
FARIBAULT      CLOUDY    19  18  93 CALM      30.08R
OWATONNA       CLOUDY    19  18  93 CALM      30.06S
WASECA         CLOUDY    21  19  93 NE5       30.08S WCI  15
ALBERT LEA     CLOUDY    21  19  93 N3        30.04S
$$
MNZ078>079-086>088-094>096-170900-
   Southeast Minnesota

CITY           SKY/WX    TMP DP  RH WIND       PRES   REMARKS
ROCHESTER      FOG       24  24 100 E8        30.04F VSB 1/4 WCI  15
RED WING       CLOUDY    25  19  80 E3        30.10R
STANTON        PTCLDY    21  18  87 N3        30.08R
DODGE CENTER   CLOUDY    18  16  93 E5        30.04F WCI  11
WINONA         CLOUDY    30  28  93 E7        30.10F WCI  23
AUSTIN         CLOUDY    21  19  93 CALM      30.04F
PRESTON        FOG       25  24  95 E7        30.05F VSB 1/4 WCI  17
$$
ABBREVIATIONS USED IN REMARKS
   TC - TEMPERATURES IN CELSIUS
  WCI - WIND CHILL INDEX
   HX - HEAT INDEX
  VSB - VISIBILITY
$$




USA.gov is the U.S. government's official web portal to all federal, state and local government web resources and services.